Track IRIDIUM 39 now! 10-day predictions IRIDIUM 39 is classified as:
1 25042U 97069D 21022.86894158 .00000146 00000-0 35037-4 0 9993 2 25042 86.3952 177.8111 0017010 255.6284 104.3031 14.46435270216620